Home > Weather > Mexicali > Past weeks

Flag for Mexico Weather for the Past 2 Weeks in Mexicali, Baja California, Mexico

Now
74 °F

Sunny.


Feels Like: 76 °F
Forecast: 51 / 81 °F
Wind: 7 mph from North

Location: Imperial County Airport

Current Time: Feb 8, 2016 at 11:00:14 AM

Latest Report: Feb 8, 2016 at 9:53 AM


Visibility: 10 mi

Pressure: 30.24 "Hg

Humidity: 21%

Dew point: 31 °F

Location of MexicaliLocation

Historic Weather in Mexicali — Graph

°F

Mexicali Temperature Yesterday

Maximum temperature yesterday: 81 °F (at 3:53 PM)
Minimum temperature yesterday: 41 °F (at 3:53 AM)
Average temperature yesterday: 61 °F

High & Low Weather Summary for the Past Weeks

 TemperatureHumidityPressure
High84 °F (Jan 30, 12:53 PM)68% (Jan 31, 5:00 PM)30.42 "Hg (Jan 31, 5:00 PM)
Low33 °F (Feb 3, 6:53 AM)11% (Jan 27, 1:53 PM)29.60 "Hg (Jan 31, 3:53 PM)
Average57 °F36%30.13 "Hg
* Reported Jan 24 9:53 AM — Feb 8 9:53 AM, Mexicali, Weather by CustomWeather, © 2016

Note: Actual official high and low records may vary slightly from our data, if they occured in-between our weather recording intervals... More about our weather records

Advertising

Mexicali Weather History for the Previous 24 Hours

 ConditionsComfort  
Time TempWeatherWind HumidityBarometerVisibility
9:53 AM
Mon, Feb 8
74 °FSunny.7 mph21%30.24 "Hg10 mi
8:53 AM66 °FSunny.3 mph33%30.24 "Hg10 mi
7:53 AM56 °FSunny.7 mph39%30.23 "Hg10 mi
6:53 AM49 °FSunny.3 mph41%30.20 "Hg10 mi
5:53 AM51 °FClear.6 mph41%30.19 "Hg10 mi
4:53 AM51 °FClear.7 mph42%30.18 "Hg10 mi
3:53 AM48 °FClear.6 mph44%30.16 "Hg10 mi
2:53 AM50 °FClear.8 mph38%30.15 "Hg10 mi
1:53 AM49 °FClear.7 mph41%30.15 "Hg10 mi
12:53 AM51 °FClear.10 mph36%30.14 "Hg10 mi
11:53 PM
Sun, Feb 7
50 °FClear.7 mph41%30.15 "Hg10 mi
10:53 PM54 °FClear.7 mph34%30.16 "Hg10 mi
9:53 PM55 °FClear.8 mph31%30.15 "Hg10 mi
8:53 PM59 °FClear.6 mph29%30.14 "Hg10 mi
7:53 PM61 °FClear.7 mph30%30.14 "Hg10 mi
6:53 PM66 °FClear.3 mph25%30.13 "Hg10 mi
5:53 PM69 °FClear.3 mph23%30.12 "Hg10 mi
4:53 PM79 °FSunny.No wind13%30.11 "Hg10 mi
3:53 PM81 °FSunny.5 mph12%30.12 "Hg10 mi
2:53 PM80 °FSunny.7 mph13%30.12 "Hg10 mi
1:53 PM80 °FSunny.10 mph11%30.14 "Hg10 mi
12:53 PM79 °FSunny.8 mph11%30.16 "Hg10 mi
11:53 AM76 °FSunny.6 mph13%30.19 "Hg10 mi
Weather by CustomWeather, © 2016

See weather overviewHow to use our weather pages